Lid_Strength_Index
-1 2 1 3 9 9 11 10 7 8 8 6 5 7 7 7 9 13 2 0 -0 -0 -1 -1 -2 -2 -2 -2 -2 -2 -2 -2 -2 -2 -2 -2 -2 -2 -2 -2 -2 -2 -2 -2 -2 -2 -2 -2 -2
3 2 2 5 10 12 12 8 9 7 6 5 5 6 7 9 5 4 3 0 -0 -0 -1 -1 -1 -2 -2 -2 -2 -2 -2 -2 -2 -2 -2 -2 -2 -2 -2 -2 -3 -2 -2 -2 -2 -2 -2 -2 -2
2 2 5 8 10 12 11 8 7 6 6 6 7 5 6 7 4 3 1 0 -0 -0 -0 -1 -1 -2 -2 -2 -2 -2 -2 -2 -2 -2 -2 -2 -2 -2 -2 -2 -3 -2 -2 -2 -2 -2 -2 -2 -2
4 4 5 9 11 10 9 8 6 6 6 6 6 7 5 3 3 2 0 0 0 0 -0 -1 -1 -2 -2 -2 -1 -2 -2 -2 -2 -2 -2 -2 -2 -2 -2 -2 -3 -2 -2 -2 -2 -2 -2 -2 -2
4 4 9 10 10 9 8 6 6 7 7 6 7 8 7 3 1 1 1 0 1 0 -0 -1 -1 -2 -2 -2 -2 -2 -2 -2 -2 -2 -2 -2 -2 -2 -2 -2 -2 -2 -2 -2 -2 -2 -2 -2 -2
6 6 11 12 10 9 8 7 6 7 7 6 8 7 7 2 2 1 1 1 -0 0 -0 -1 0 -1 -1 -2 -2 -2 -2 -2 -2 -2 -2 -2 -2 -2 -2 -2 -2 -2 -2 -2 -3 -2 -2 -2 -2
6 8 11 10 10 9 8 6 7 8 8 7 6 8 6 4 2 1 1 1 0 -0 -0 -0 -1 -0 -0 -1 -1 -1 -1 -2 -2 -2 -2 -2 -2 -3 -3 -2 -2 -2 -2 -2 -3 -2 -2 -2 -2
6 7 10 11 10 10 7 7 7 8 7 5 5 8 8 4 1 1 1 1 0 0 -0 0 -0 -0 -0 -0 0 0 -1 -2 -2 -2 -1 -1 -1 -2 -2 -1 -2 -3 -2 -2 -2 -2 -2 -2 -2
5 9 11 10 9 9 7 8 8 8 7 6 5 5 3 2 1 2 2 2 1 1 0 0 0 0 -0 -0 1 1 0 -0 -0 -1 -0 0 -0 -0 -0 -1 -2 -3 -2 -3 -2 -1 -1 -2 -2
8 10 9 8 8 8 7 8 8 9 8 7 6 4 3 2 3 3 3 3 3 2 1 0 0 0 0 -1 -0 -0 -0 -0 -0 -1 0 -0 -0 0 0 0 -0 -1 -2 -2 -2 -2 -1 -0 0
8 9 7 8 8 6 7 8 7 9 9 8 7 5 4 4 3 3 3 3 3 2 1 1 0 0 0 0 0 0 -0 0 0 0 -0 0 0 0 0 0 0 1 1 0 -0 0 0 0 1
9 8 8 7 8 7 8 7 8 9 9 7 6 4 4 4 4 3 3 3 2 2 1 1 1 0 0 0 0 0 0 0 0 0 -0 0 1 1 1 1 1 1 1 1 1 1 1 1 0
9 9 8 8 8 8 7 8 9 9 8 7 6 4 4 4 4 3 3 2 2 2 1 1 1 1 1 0 0 0 0 0 0 0 -0 0 1 1 1 1 1 1 1 1 1 2 1 1 1
8 8 8 8 8 8 8 9 10 9 7 8 7 6 5 4 4 3 3 3 2 2 2 1 0 0 0 1 1 1 0 -0 0 0 0 0 1 1 1 1 1 1 1 2 2 2 2 2 1
8 10 9 9 9 9 9 11 10 9 8 8 8 8 5 4 4 4 3 3 2 2 2 1 1 1 0 -0 -0 0 1 1 0 -0 0 0 0 1 2 2 2 2 2 2 2 2 2 2 2
10 10 12 10 9 9 10 12 9 9 9 9 9 9 7 5 4 3 3 2 2 2 2 1 1 1 0 0 -0 -0 -0 0 0 -0 -0 0 0 1 2 2 1 0 1 2 3 3 3 3 3
11 14 13 12 9 10 11 12 11 10 10 10 10 9 8 7 5 4 3 3 2 2 2 2 1 1 1 0 -0 -0 -0 -0 -0 -0 -0 -0 0 0 1 2 2 2 2 3 3 4 4 4 4
14 14 12 13 11 11 12 12 10 10 9 10 10 10 9 9 7 6 5 5 3 2 2 2 1 1 1 0 0 -0 0 -0 -0 -0 -0 -0 0 0 1 2 2 2 3 3 3 3 4 4 4
11 12 13 12 11 12 12 12 11 10 10 11 10 9 9 8 8 8 8 8 9 8 3 2 2 1 1 1 1 1 1 1 0 0 0 1 1 -0 0 2 2 2 2 2 3 3 4 4 4
12 12 13 12 11 12 12 12 11 10 10 10 10 10 9 9 9 8 9 9 8 7 7 5 2 2 1 1 1 1 1 1 0 1 1 0 0 0 0 1 1 1 2 3 3 3 5 4 5
13 13 14 13 12 12 14 14 12 11 11 10 11 11 10 10 9 8 8 7 6 8 7 6 5 2 2 1 0 1 2 1 1 1 1 1 1 0 0 1 1 1 3 4 4 3 4 5 6
13 11 11 12 13 17 14 19 14 13 13 11 10 11 10 9 9 7 7 7 7 6 6 7 6 4 3 1 2 1 2 3 1 1 0 0 0 0 0 1 1 2 2 3 3 3 4 4 5
12 11 11 12 13 16 16 17 16 13 14 12 10 10 9 9 8 8 8 7 6 5 5 8 7 4 3 3 2 1 2 1 1 1 1 1 0 0 0 1 1 1 2 2 3 4 4 3 4
10 11 12 13 14 19 16 17 17 15 13 12 10 9 9 9 9 8 7 7 7 6 5 4 5 5 3 3 3 2 2 2 2 2 1 1 1 0 0 1 1 1 1 1 2 2 2 3 3
12 13 18 19 20 20 17 17 15 14 12 10 10 10 9 9 9 9 8 8 8 8 7 6 4 3 3 3 3 3 2 2 2 2 3 2 2 2 4 3 3 2 1 1 0 1 1 1 1
13 13 17 21 20 19 17 19 16 13 12 10 9 10 9 9 8 9 8 8 8 8 8 7 7 7 6 6 5 4 4 5 6 6 6 6 6 6 6 6 5 5 5 4 4 3 3 2 3
13 14 12 17 21 19 18 16 13 12 12 10 10 10 10 9 9 9 8 8 8 9 8 8 8 8 8 8 8 8 7 7 8 8 8 8 8 7 8 7 7 7 6 6 6 6 6 6 6
12 11 16 15 22 22 18 18 17 15 13 11 11 10 9 9 9 9 9 9 9 9 9 9 8 9 9 9 9 9 9 9 9 9 9 9 9 9 9 9 9 8 8 8 8 8 8 8 8
14 14 13 14 15 19 21 19 14 13 12 11 10 9 9 9 9 9 9 9 9 9 9 9 9 9 9 9 9 10 10 10 10 10 10 10 10 10 10 10 10 10 10 10 10 10 10 10 9
12 12 12 15 18 17 17 17 12 12 11 10 10 9 9 8 9 9 9 9 9 9 9 10 10 10 10 9 10 10 10 11 11 11 11 11 11 11 11 11 11 11 11 11 11 11 11 11 11